VK2RZ Weather Reports


time (UTC)temp
F
wind
direction
speed
knots
gust
knots
rain 1hr
in
rain 24hr
in
rain mn
in
humidity
%
barometer
mb
20260903232724 64 222 2.6 7.8 0.00 0.00 0.00 5 1021.7
20260903231724 63 246 4.3 13.9 0.00 0.00 0.00 5 1021.8
20260903230724 62 250 11.3 11.3 0.00 0.00 0.00 5 1021.8
20260903225724 62 226 6.1 13.0 0.00 0.00 0.00 5 1022.0
20260903224724 62 268 7.8 13.9 0.00 0.00 0.00 5 1021.8
20260903223724 61 266 6.1 12.2 0.00 0.00 0.00 5 1021.9
20260903222724 61 292 7.0 11.3 0.00 0.00 0.00 6 1021.9
20260903221724 61 251 7.8 13.0 0.00 0.00 0.00 6 1021.9
20260903220724 60 218 2.6 10.4 0.00 0.00 0.00 6 1021.9
20260903215724 60 258 6.1 10.4 0.00 0.00 0.00 6 1021.8
20260903214724 59 239 4.3 8.7 0.00 0.00 0.00 6 1021.7
20260903213724 59 257 6.1 9.6 0.00 0.00 0.00 6 1021.6
20260903212724 59 240 9.6 11.3 0.00 0.00 0.00 6 1021.5
20260903211724 58 242 4.3 10.4 0.00 0.00 0.00 6 1021.6
20260903210724 57 243 2.6 9.6 0.00 0.00 0.00 6 1021.3
20260903205724 57 258 6.1 7.8 0.00 0.00 0.00 6 1021.3
20260903204723 57 238 3.5 8.7 0.00 0.00 0.00 6 1021.2
20260903203722 56 244 5.2 7.8 0.00 0.00 0.00 6 1021.2
20260903202722 56 243 4.3 7.8 0.00 0.00 0.00 6 1021.1
20260903201722 56 233 3.5 5.2 0.00 0.00 0.00 6 1021.1
20260903200722 56 250 4.3 7.0 0.00 0.00 0.00 6 1021.1
20260903195722 56 246 5.2 9.6 0.00 0.00 0.00 6 1020.9
20260903194722 56 246 5.2 7.8 0.00 0.00 0.00 6 1020.7
20260903193722 56 284 2.6 7.8 0.00 0.00 0.00 6 1020.4
20260903193231 56 246 3.5 7.8 0.00 0.00 0.00 6 1020.5
20260903192231 56 258 4.3 6.1 0.00 0.00 0.00 6 1020.4
20260903191231 56 246 7.0 7.8 0.00 0.00 0.00 6 1020.4
20260903190231 56 254 4.3 4.3 0.00 0.00 0.00 6 1020.3
20260903185231 56 251 1.7 5.2 0.00 0.00 0.00 6 1020.3
20260903184230 57 256 6.1 7.0 0.00 0.00 0.00 6 1020.0
20260903183230 57 249 2.6 4.3 0.00 0.00 0.00 6 1020.2
20260903182230 57 258 3.5 7.0 0.00 0.00 0.00 6 1019.6
20260903181230 57 259 6.1 6.1 0.00 0.00 0.00 6 1019.7
20260903180230 57 237 5.2 7.8 0.00 0.00 0.00 6 1019.3
20260903175230 57 241 1.7 4.3 0.00 0.00 0.00 6 1019.5
20260903174230 57 262 7.0 7.8 0.00 0.00 0.00 6 1019.3
20260903173230 57 215 1.7 8.7 0.00 0.00 0.00 6 1019.5
20260903172230 57 252 7.8 11.3 0.00 0.00 0.00 6 1019.3
20260903171230 57 246 2.6 8.7 0.00 0.00 0.00 6 1019.4
20260903170230 57 270 2.6 5.2 0.00 0.00 0.00 6 1019.5
20260903165230 57 249 2.6 8.7 0.00 0.00 0.00 6 1019.5
20260903164230 57 233 0.9 4.3 0.00 0.00 0.00 6 1019.7
20260903163230 57 0 0.0 0.9 0.00 0.00 0.00 6 1019.7
20260903162230 57 268 1.7 2.6 0.00 0.00 0.00 6 1019.8
20260903161230 58 268 3.5 6.1 0.00 0.00 0.00 6 1019.9
20260903160230 58 258 1.7 7.0 0.00 0.00 0.00 6 1020.0
20260903155230 58 240 1.7 5.2 0.00 0.00 0.00 6 1019.9
20260903154230 58 256 6.1 7.8 0.00 0.00 0.00 6 1019.8
20260903153230 58 259 6.1 9.6 0.00 0.00 0.00 6 1019.9
20260903152230 59 245 4.3 9.6 0.00 0.00 0.00 6 1020.1
20260903151230 59 264 10.4 11.3 0.00 0.00 0.00 6 1020.0
20260903150230 59 218 6.1 9.6 0.00 0.00 0.00 6 1020.1
20260903145230 58 224 5.2 9.6 0.00 0.00 0.00 6 1020.3
20260903144230 58 232 1.7 4.3 0.00 0.00 0.00 6 1020.4
20260903143229 58 0 0.0 1.7 0.00 0.00 0.00 6 1020.4
20260903142229 58 232 2.6 3.5 0.00 0.00 0.00 6 1020.3
20260903141229 59 259 3.5 6.1 0.00 0.00 0.00 6 1020.3
20260903140229 59 252 4.3 7.8 0.00 0.00 0.00 6 1020.2
20260903135229 60 216 3.5 7.8 0.00 0.00 0.00 6 1020.1
20260903134229 60 241 4.3 8.7 0.00 0.00 0.00 6 1019.9
20260903133230 60 261 7.8 9.6 0.00 0.00 0.00 6 1019.9
20260903132229 60 245 5.2 6.1 0.00 0.00 0.00 6 1019.9
20260903131228 61 229 3.5 7.8 0.00 0.00 0.00 6 1019.6
20260903130228 61 260 2.6 11.3 0.00 0.00 0.00 5 1019.5
20260903125228 61 243 4.3 6.1 0.00 0.00 0.00 5 1019.4
20260903124228 62 241 1.7 7.8 0.00 0.00 0.00 5 1019.2
20260903123228 62 195 7.0 13.9 0.00 0.00 0.00 5 1019.0
20260903122228 62 234 3.5 11.3 0.00 0.00 0.00 5 1019.0
20260903121228 62 244 10.4 13.9 0.00 0.00 0.00 5 1019.0
20260903120228 62 249 10.4 10.4 0.00 0.00 0.00 6 1018.8
20260903115228 62 249 4.3 7.8 0.00 0.00 0.00 6 1018.7
20260903114228 62 255 1.7 2.6 0.00 0.00 0.00 6 1018.7
20260903113228 62 255 3.5 4.3 0.00 0.00 0.00 6 1018.5
20260903112228 62 251 0.9 2.6 0.00 0.00 0.00 6 1018.4
20260903111228 63 0 0.0 0.0 0.00 0.00 0.00 6 1018.3
20260903110228 63 0 0.0 2.6 0.00 0.00 0.00 5 1018.2
20260903105228 64 247 1.7 2.6 0.00 0.00 0.00 5 1017.8
20260903104228 64 247 1.7 5.2 0.00 0.00 0.00 5 1017.6
20260903103228 64 283 2.6 5.2 0.00 0.00 0.00 5 1017.7
20260903102228 64 291 2.6 3.5 0.00 0.00 0.00 5 1017.6
20260903101228 65 285 1.7 6.1 0.00 0.00 0.00 5 1017.1
20260903100228 65 267 1.7 4.3 0.00 0.00 0.00 5 1016.9
20260903095227 66 291 2.6 3.5 0.00 0.00 0.00 5 1016.8
20260903094227 66 261 1.7 2.6 0.00 0.00 0.00 5 1016.6
20260903093227 67 226 1.7 5.2 0.00 0.00 0.00 5 1016.0
20260903092227 67 226 3.5 7.0 0.00 0.00 0.00 5 1015.7
20260903091227 68 257 2.6 7.0 0.00 0.00 0.00 5 1015.6
20260903090227 68 274 1.7 2.6 0.00 0.00 0.00 4 1015.6
20260903085227 68 259 2.6 3.5 0.00 0.00 0.00 4 1015.3
20260903084438 68 285 2.6 6.1 0.00 0.00 0.00 4 1015.1
20260903083438 69 225 4.3 6.1 0.00 0.00 0.00 4 1014.9
20260903082438 69 257 3.5 9.6 0.00 0.00 0.00 4 1014.7
20260903081437 70 249 3.5 8.7 0.00 0.00 0.00 4 1014.5
20260903080436 70 237 1.7 8.7 0.00 0.00 0.00 4 1014.3
20260903075435 68 285 1.7 2.6 0.00 0.00 0.00 4 1014.2
20260903074435 69 305 0.9 2.6 0.00 0.00 0.00 4 1014.2
20260903073435 71 305 0.9 3.5 0.00 0.00 0.00 4 1013.9
20260903072435 71 0 0.0 4.3 0.00 0.00 0.00 4 1013.8
20260903071435 72 0 0.0 3.5 0.00 0.00 0.00 4 1013.6
20260903070435 72 0 5.2 5.2 0.00 0.00 0.00 4 1013.3
20260903065435 74 235 0.9 3.5 0.00 0.00 0.00 4 1013.1
20260903064435 75 242 2.6 7.8 0.00 0.00 0.00 3 1012.8
20260903063435 75 262 0.9 8.7 0.00 0.00 0.00 3 1012.5
20260903062435 76 257 4.3 9.6 0.00 0.00 0.00 3 1012.5
20260903061435 76 311 1.7 10.4 0.00 0.00 0.00 3 1012.3
20260903060435 76 268 2.6 13.0 0.00 0.00 0.00 3 1012.2
20260903055435 76 270 0.9 12.2 0.00 0.00 0.00 3 1011.9
20260903054435 77 129 4.3 7.8 0.00 0.00 0.00 3 1011.9
20260903053435 77 296 1.7 8.7 0.00 0.00 0.00 3 1011.8
20260903052435 78 274 1.7 8.7 0.00 0.00 0.00 3 1011.8
20260903051435 78 255 4.3 11.3 0.00 0.00 0.00 3 1011.7
20260903050439 78 175 4.3 9.6 0.00 0.00 0.00 3 1011.6
20260903045439 78 228 8.7 12.2 0.00 0.00 0.00 3 1011.4
20260903044439 78 222 8.7 10.4 0.00 0.00 0.00 3 1011.3
20260903043442 79 267 3.5 10.4 0.00 0.00 0.00 3 1010.9
20260903042439 79 274 3.5 12.2 0.00 0.00 0.00 3 1010.8
20260903041447 79 220 6.1 11.3 0.00 0.00 0.00 3 1010.9
20260903040437 79 245 2.6 7.0 0.00 0.00 0.00 3 1010.6
20260903035434 79 228 8.7 13.0 0.00 0.00 0.00 3 1010.5
20260903034437 79 218 4.3 8.7 0.00 0.00 0.00 3 1010.5
20260903032434 80 256 7.8 13.0 0.00 0.00 0.00 3 1010.4
20260903031437 79 233 2.6 11.3 0.00 0.00 0.00 3 1010.3
20260903030438 79 252 7.8 12.2 0.00 0.00 0.00 3 1010.2
20260903025434 79 251 3.5 13.9 0.00 0.00 0.00 3 1010.2
20260903024437 79 212 2.6 13.0 0.00 0.00 0.00 3 1010.3
20260903021435 79 247 7.8 10.4 0.00 0.00 0.00 3 1010.3
20260903020438 79 190 7.0 13.0 0.00 0.00 0.00 3 1010.5
20260903015435 78 198 6.1 13.9 0.00 0.00 0.00 3 1010.3
20260903014435 78 185 5.2 11.3 0.00 0.00 0.00 3 1010.5
20260903013433 78 202 7.0 13.0 0.00 0.00 0.00 3 1010.4
20260903012437 79 252 4.3 12.2 0.00 0.00 0.00 3 1010.3
20260903011433 79 210 3.5 12.2 0.00 0.00 0.00 3 1010.3
20260903010437 79 260 7.0 13.9 0.00 0.00 0.00 3 1010.1
20260903005434 79 216 5.2 13.0 0.00 0.00 0.00 3 1010.2
20260903004437 78 293 13.0 14.8 0.00 0.00 0.00 3 1010.3
20260903003435 78 238 4.3 13.9 0.00 0.00 0.00 4 1010.4
20260903002432 78 216 8.7 13.9 0.00 0.00 0.00 4 1010.1
20260903001436 78 254 7.8 12.2 0.00 0.00 0.00 4 1010.0
20260903000435 78 224 6.1 14.8 0.00 0.00 0.00 4 1010.1
20260902235433 77 233 4.3 10.4 0.00 0.00 0.00 4 1010.1
20260902234435 78 231 4.3 19.1 0.00 0.00 0.00 4 1010.0